User: anonymous   Login
Location: *
(40.4270°N, 9.4940°E)
Time: 13:35:59
(UTC+01:00)
Language:

Okean 2 - Orbit

View from above orbital plane
View from above orbital plane
View from above satellite
View from above satellite

Ground track
Ground track

The orbit data is extracted from the following two-line orbital elements,

1 20510U 90018A   17055.15002580  .00000387  00000-0  29788-4 0  9991
2 20510  82.5144 279.9834 0012605  11.0970 139.1689 14.98822096464514
Epoch (UTC): 24 February 2017 03:36:02
Eccentricity: 0.0012605
inclination: 82.5144°
perigee height: 562 km
apogee height: 579 km
right ascension of ascending node: 279.9834°
argument of perigee: 11.0970°
revolutions per day: 14.98822096
mean anomaly at epoch: 139.1689°
orbit number at epoch: 46451

The dashed part of the orbit path shows where the satellite is in the earth's shadow,  

DLR